Ship Status Report: callsign CFN5364

sailwx.info

Track history (hours):
 
Tides and Currents Weather Stations Pressure Air Temp Water Temp Dewpoint Dewpoint Depression Visibility Wind Speed Wind Dir Waves Ship Positions

Callsign CFN5364 (name unknown)

Last reported at 2014-Sep-21 04:33 UTC. Time now 2014-Oct-01 00:01 UTC.
Position N 51°32' W 127°52'.
Warning: this ship's position is 9 days out of date.

Date/timePositionNaut miles runAvg speedWind from/ knotsBaromVisibWave heightAir tempDewpointWater temp
2014-Sep-21 04:33N 51°32' W 127°52'1616.4
2014-Sep-21 03:33N 51°16' W 127°54'1817.0
2014-Sep-21 02:31N 50°59' W 127°45'1414.4
2014-Sep-21 01:33N 50°48' W 127°33'5 1.0
2014-Sep-20 20:08N 50°44' W 127°27'0 0.0
2014-Sep-20 19:25N 50°44' W 127°27'0 0.0
2014-Sep-20 18:25N 50°44' W 127°27'1 0.3
2014-Sep-20 15:33N 50°44' W 127°28'1212.2
2014-Sep-20 14:33N 50°54' W 127°39'1514.6
2014-Sep-20 13:33N 51°07' W 127°50'1515.1
2014-Sep-20 12:33N 51°22' W 127°52'19610.7
2014-Sep-19 18:20N 54°16' W 130°22'2 2.8
2014-Sep-19 17:33N 54°18' W 130°21'0 0.0
2014-Sep-19 16:33N 54°18' W 130°21'0 0.0
2014-Sep-19 15:33N 54°18' W 130°21'0 0.0
2014-Sep-19 14:33N 54°18' W 130°21'  
2014-Sep-17 09:32N 54°18' W 130°21'0 0.0
2014-Sep-17 08:32N 54°18' W 130°21'0 0.0
2014-Sep-17 07:31N 54°18' W 130°21'0 0.0
2014-Sep-17 06:31N 54°18' W 130°21'0 0.0
2014-Sep-17 05:27N 54°18' W 130°21'0 0.0
2014-Sep-17 04:33N 54°18' W 130°21'0 0.0
2014-Sep-17 03:33N 54°18' W 130°21'0 0.0
2014-Sep-17 02:32N 54°18' W 130°21'0 0.0
2014-Sep-17 01:32N 54°18' W 130°21'0 0.0
2014-Sep-17 00:31N 54°18' W 130°21'1 1.3
2014-Sep-16 23:33N 54°17' W 130°22'0 0.0
2014-Sep-15 05:08N 54°16' W 130°22'2 2.9
2014-Sep-15 04:33N 54°18' W 130°21'0 0.0
2014-Sep-15 03:33N 54°18' W 130°21'0 0.0
2014-Sep-15 02:32N 54°18' W 130°21'0 0.0
2014-Sep-15 01:32N 54°18' W 130°21'0 0.0
2014-Sep-15 00:33N 54°18' W 130°21'0 0.0
2014-Sep-14 23:33N 54°18' W 130°21'1 0.7
2014-Sep-14 22:34N 54°17' W 130°22'17910.5
2014-Sep-14 05:30N 51°42' W 127°55'1516.0
2014-Sep-14 04:33N 51°27' W 127°51'1615.6
2014-Sep-14 03:31N 51°10' W 127°51'1515.9
2014-Sep-14 02:34N 50°56' W 127°42'1414.2
2014-Sep-14 01:33N 50°45' W 127°28'2 0.4
2014-Sep-13 20:13N 50°44' W 127°27'0 0.0
2014-Sep-13 19:31N 50°44' W 127°27'0 0.0
2014-Sep-13 18:30N 50°44' W 127°27'0 0.0
2014-Sep-13 17:30N 50°44' W 127°27'0 0.0
2014-Sep-13 16:29N 50°44' W 127°27'2 2.0
2014-Sep-13 15:32N 50°45' W 127°28'1313.7
2014-Sep-13 14:34N 50°56' W 127°41'1514.4
2014-Sep-13 13:33N 51°09' W 127°50'1814.5
2014-Sep-13 12:18N 51°27' W 127°51'19110.6
2014-Sep-12 18:17N 54°15' W 130°21'2 3.2
2014-Sep-12 17:31N 54°18' W 130°21'0 0.0
2014-Sep-12 16:31N 54°18' W 130°21'0 0.0
2014-Sep-12 15:33N 54°18' W 130°21'0 0.0
2014-Sep-12 14:33N 54°18' W 130°21'2 0.1
2014-Sep-11 17:12N 54°16' W 130°22'2 3.0
2014-Sep-11 16:33N 54°18' W 130°21'0 0.0
2014-Sep-11 15:32N 54°18' W 130°21'0 0.0
2014-Sep-11 14:32N 54°18' W 130°21'  
Track history (hours):
 
Tides and Currents Weather Stations Pressure Air Temp Water Temp Dewpoint Dewpoint Depression Visibility Wind Speed Wind Dir Waves Ship Positions

Callsign CFN5364 (name unknown)

Last reported at 2014-Sep-21 04:33 UTC. Time now 2014-Oct-01 00:01 UTC.
Position N 51°32' W 127°52'.
Warning: this ship's position is 9 days out of date.

Date/timePositionNaut miles runAvg speedWind from/ knotsBaromVisibWave heightAir tempDewpointWater temp
2014-Sep-21 04:33N 51°32' W 127°52'1616.4
2014-Sep-21 03:33N 51°16' W 127°54'1817.0
2014-Sep-21 02:31N 50°59' W 127°45'1414.4
2014-Sep-21 01:33N 50°48' W 127°33'5 1.0
2014-Sep-20 20:08N 50°44' W 127°27'0 0.0
2014-Sep-20 19:25N 50°44' W 127°27'0 0.0
2014-Sep-20 18:25N 50°44' W 127°27'1 0.3
2014-Sep-20 15:33N 50°44' W 127°28'1212.2
2014-Sep-20 14:33N 50°54' W 127°39'1514.6
2014-Sep-20 13:33N 51°07' W 127°50'1515.1
2014-Sep-20 12:33N 51°22' W 127°52'19610.7
2014-Sep-19 18:20N 54°16' W 130°22'2 2.8
2014-Sep-19 17:33N 54°18' W 130°21'0 0.0
2014-Sep-19 16:33N 54°18' W 130°21'0 0.0
2014-Sep-19 15:33N 54°18' W 130°21'0 0.0
2014-Sep-19 14:33N 54°18' W 130°21'  
2014-Sep-17 09:32N 54°18' W 130°21'0 0.0
2014-Sep-17 08:32N 54°18' W 130°21'0 0.0
2014-Sep-17 07:31N 54°18' W 130°21'0 0.0
2014-Sep-17 06:31N 54°18' W 130°21'0 0.0
2014-Sep-17 05:27N 54°18' W 130°21'0 0.0
2014-Sep-17 04:33N 54°18' W 130°21'0 0.0
2014-Sep-17 03:33N 54°18' W 130°21'0 0.0
2014-Sep-17 02:32N 54°18' W 130°21'0 0.0
2014-Sep-17 01:32N 54°18' W 130°21'0 0.0
2014-Sep-17 00:31N 54°18' W 130°21'1 1.3
2014-Sep-16 23:33N 54°17' W 130°22'0 0.0
2014-Sep-15 05:08N 54°16' W 130°22'2 2.9
2014-Sep-15 04:33N 54°18' W 130°21'0 0.0
2014-Sep-15 03:33N 54°18' W 130°21'0 0.0
2014-Sep-15 02:32N 54°18' W 130°21'0 0.0
2014-Sep-15 01:32N 54°18' W 130°21'0 0.0
2014-Sep-15 00:33N 54°18' W 130°21'0 0.0
2014-Sep-14 23:33N 54°18' W 130°21'1 0.7
2014-Sep-14 22:34N 54°17' W 130°22'17910.5
2014-Sep-14 05:30N 51°42' W 127°55'1516.0
2014-Sep-14 04:33N 51°27' W 127°51'1615.6
2014-Sep-14 03:31N 51°10' W 127°51'1515.9
2014-Sep-14 02:34N 50°56' W 127°42'1414.2
2014-Sep-14 01:33N 50°45' W 127°28'2 0.4
2014-Sep-13 20:13N 50°44' W 127°27'0 0.0
2014-Sep-13 19:31N 50°44' W 127°27'0 0.0
2014-Sep-13 18:30N 50°44' W 127°27'0 0.0
2014-Sep-13 17:30N 50°44' W 127°27'0 0.0
2014-Sep-13 16:29N 50°44' W 127°27'2 2.0
2014-Sep-13 15:32N 50°45' W 127°28'1313.7
2014-Sep-13 14:34N 50°56' W 127°41'1514.4
2014-Sep-13 13:33N 51°09' W 127°50'1814.5
2014-Sep-13 12:18N 51°27' W 127°51'19110.6
2014-Sep-12 18:17N 54°15' W 130°21'2 3.2
2014-Sep-12 17:31N 54°18' W 130°21'0 0.0
2014-Sep-12 16:31N 54°18' W 130°21'0 0.0
2014-Sep-12 15:33N 54°18' W 130°21'0 0.0
2014-Sep-12 14:33N 54°18' W 130°21'2 0.1
2014-Sep-11 17:12N 54°16' W 130°22'2 3.0
2014-Sep-11 16:33N 54°18' W 130°21'0 0.0
2014-Sep-11 15:32N 54°18' W 130°21'0 0.0
2014-Sep-11 14:32N 54°18' W 130°21'  

Dump ship's entire track history